Overview Statistics Trail Chart Weather Telemetry Raw packets
 

This is the latest recevied weather packets stored in our database for station/object SA0CBP-10. If no packets are shown the sender has not sent any weather packets the latest 10 day(s).

<< 10 11 12 13 14 15 16 >>
Time Temp. Humidity Pressure Rain* Wind** Luminosity Snow
1788123816 26.11° C 38% 1004.1 hPa - - - -
1788122076 25.56° C 40% 1004.2 hPa - - - -
1788120335 25.56° C 40% 1004.4 hPa - - - -
1788118595 25.56° C 40% 1004.5 hPa - - - -
1788116855 25° C 40% 1004.6 hPa - - - -
1788115115 25.56° C 40% 1004.7 hPa - - - -
1788113374 25.56° C 39% 1004.9 hPa - - - -
1788111634 25.56° C 40% 1004.8 hPa - - - -
1788109894 25° C 39% 1005 hPa - - - -
1788108154 25° C 40% 1005.2 hPa - - - -
1788106414 25.56° C 39% 1005.2 hPa - - - -
1788104673 25° C 39% 1005.4 hPa - - - -
1788102933 25° C 39% 1005.8 hPa - - - -
1788101193 25.56° C 38% 1006.1 hPa - - - -
1788099453 25.56° C 37% 1006.3 hPa - - - -
1788097713 25.56° C 37% 1006.3 hPa - - - -
1788095973 25.56° C 37% 1006.6 hPa - - - -
1788094232 25.56° C 37% 1006.3 hPa - - - -
1788092492 26.11° C 37% 1006.4 hPa - - - -
1788090752 26.67° C 34% 1006.3 hPa - - - -
1788089012 26.67° C 35% 1006.3 hPa - - - -
1788087272 26.67° C 35% 1006.2 hPa - - - -
1788085532 26.67° C 35% 1006.4 hPa - - - -
1788083792 26.67° C 36% 1006.3 hPa - - - -
1788082051 26.67° C 35% 1006.3 hPa - - - -

* Rain since midnight (hover to see other rain measurements)
** Current wind speed in m/s (hover to see current wind gust speed)